When you browse on this site, cookies collect data to enhance your experience and personalize the content and advertising you see.
Visit our Privacy Policy to learn more. By continuing to use the site, you agree to this use of cookies and data.
  • In Hungary
  • List of Countries
  • For 7 days
  • Water Temperature
  • Satellite Maps
  • Weather Map
  • News
  • Weather Widgets
  • user-avatar
    Login

    Hourly Weather Calatayud

    Today, 15 December, Saturday

    Time Temperature Precipitation Wind Pressure Humidity
    00:00 +4°C° 0 mm 4 mps 718 mmHg 77%
    01:00 +4°C° 0 mm 4 mps 718 mmHg 77%
    02:00 +3°C° 0 mm 5 mps 718 mmHg 76%
    03:00 +3°C° 0 mm 5 mps 718 mmHg 76%
    04:00 +3°C° 0 mm 5 mps 718 mmHg 76%
    05:00 +3°C° 0 mm 5 mps 718 mmHg 77%
    06:00 +3°C° 0 mm 5 mps 718 mmHg 78%
    07:00 +5°C° 0 mm 5 mps 718 mmHg 78%
    08:00 +6°C° 0 mm 5 mps 718 mmHg 77%
    09:00 +7°C° 0 mm 5 mps 718 mmHg 76%
    10:00 +9°C° 0 mm 6 mps 718 mmHg 74%
    11:00 +11°C° 0 mm 7 mps 718 mmHg 71%
    12:00 +14°C° 0 mm 7 mps 718 mmHg 68%
    13:00 +14°C° 0 mm 7 mps 718 mmHg 68%
    14:00 +14°C° 0 mm 7 mps 717 mmHg 68%
    15:00 +14°C° 0 mm 7 mps 717 mmHg 68%
    16:00 +12°C° 0 mm 7 mps 717 mmHg 73%
    17:00 +11°C° 0 mm 6 mps 717 mmHg 77%
    18:00 +10°C° 0 mm 6 mps 717 mmHg 81%
    19:00 +9°C° 0 mm 6 mps 717 mmHg 82%
    20:00 +9°C° 0 mm 6 mps 717 mmHg 83%
    21:00 +9°C° 0 mm 6 mps 717 mmHg 84%
    22:00 +9°C° 0 mm 6 mps 717 mmHg 84%
    23:00 +9°C° 0 mm 6 mps 717 mmHg 85%

    Tomorrow, 16 December, Sunday

    Time Temperature Precipitation Wind Pressure Humidity
    00:00 +9°C° 0 mm 6 mps 717 mmHg 85%
    01:00 +9°C° 0.1 mm 6 mps 717 mmHg 85%
    02:00 +9°C° 0.1 mm 6 mps 716 mmHg 85%
    03:00 +9°C° 0.1 mm 6 mps 716 mmHg 85%
    04:00 +9°C° 0.4 mm 6 mps 716 mmHg 85%
    05:00 +9°C° 0.4 mm 6 mps 715 mmHg 85%
    06:00 +9°C° 0.4 mm 5 mps 715 mmHg 85%
    07:00 +9°C° 1.1 mm 6 mps 715 mmHg 85%
    08:00 +9°C° 1.1 mm 6 mps 715 mmHg 86%
    09:00 +9°C° 1.1 mm 6 mps 715 mmHg 86%
    10:00 +9°C° 1.5 mm 6 mps 715 mmHg 85%
    11:00 +10°C° 1.5 mm 7 mps 714 mmHg 83%
    12:00 +10°C° 1.5 mm 7 mps 714 mmHg 81%
    13:00 +10°C° 0 mm 8 mps 714 mmHg 75%
    14:00 +11°C° 0 mm 9 mps 714 mmHg 70%
    15:00 +12°C° 0 mm 10 mps 714 mmHg 64%
    16:00 +10°C° 0 mm 9 mps 715 mmHg 67%
    17:00 +9°C° 0 mm 8 mps 715 mmHg 70%
    18:00 +8°C° 0 mm 7 mps 716 mmHg 72%
    19:00 +8°C° 0 mm 7 mps 716 mmHg 74%
    20:00 +6°C° 0 mm 7 mps 717 mmHg 76%
    21:00 +6°C° 0 mm 7 mps 718 mmHg 78%
    22:00 +5°C° 0 mm 6 mps 718 mmHg 79%
    23:00 +5°C° 0 mm 6 mps 719 mmHg 81%

    Day after tomorrow, 17 December, Monday

    Time Temperature Precipitation Wind Pressure Humidity
    00:00 +4°C° 0 mm 6 mps 719 mmHg 82%
    01:00 +3°C° 0 mm 5 mps 719 mmHg 83%
    02:00 +3°C° 0 mm 5 mps 720 mmHg 84%
    03:00 +4°C° 0 mm 4 mps 720 mmHg 86%
    04:00 +3°C° 0 mm 4 mps 720 mmHg 86%
    05:00 +3°C° 0 mm 3 mps 720 mmHg 87%
    06:00 +2°C° 0 mm 3 mps 721 mmHg 87%
    07:00 +3°C° 0 mm 3 mps 721 mmHg 84%
    08:00 +3°C° 0 mm 3 mps 721 mmHg 81%
    09:00 +4°C° 0 mm 3 mps 722 mmHg 78%
    10:00 +5°C° 0 mm 3 mps 722 mmHg 70%
    11:00 +7°C° 0 mm 2 mps 722 mmHg 62%
    12:00 +9°C° 0 mm 2 mps 722 mmHg 54%
    13:00 +9°C° 0 mm 2 mps 721 mmHg 51%
    14:00 +10°C° 0 mm 2 mps 721 mmHg 49%
    15:00 +10°C° 0 mm 2 mps 721 mmHg 46%
    16:00 +9°C° 0 mm 2 mps 721 mmHg 53%
    17:00 +8°C° 0 mm 1 mps 721 mmHg 59%
    18:00 +6°C° 0 mm 1 mps 721 mmHg 65%
    19:00 +6°C° 0 mm 1 mps 721 mmHg 64%
    20:00 +6°C° 0 mm 1 mps 721 mmHg 64%
    21:00 +5°C° 0 mm 2 mps 721 mmHg 63%
    22:00 +5°C° 0 mm 2 mps 721 mmHg 63%
    23:00 +5°C° 0 mm 2 mps 721 mmHg 62%

    18 December, Tuesday

    Time Temperature Precipitation Wind Pressure Humidity
    00:00 +5°C° 0 mm 2 mps 721 mmHg 62%
    01:00 +4°C° 0 mm 2 mps 720 mmHg 61%
    02:00 +4°C° 0 mm 2 mps 720 mmHg 60%
    03:00 +3°C° 0 mm 3 mps 720 mmHg 60%
    04:00 +3°C° 0 mm 3 mps 719 mmHg 60%
    05:00 +3°C° 0 mm 3 mps 719 mmHg 61%
    06:00 +3°C° 0 mm 3 mps 718 mmHg 62%
    07:00 +4°C° 0 mm 3 mps 718 mmHg 61%
    08:00 +5°C° 0 mm 4 mps 718 mmHg 60%
    09:00 +6°C° 0 mm 4 mps 718 mmHg 59%
    10:00 +7°C° 0 mm 5 mps 718 mmHg 55%
    11:00 +9°C° 0 mm 5 mps 717 mmHg 51%
    12:00 +11°C° 0 mm 6 mps 717 mmHg 47%
    13:00 +11°C° 0 mm 6 mps 716 mmHg 48%
    14:00 +11°C° 0 mm 6 mps 716 mmHg 49%
    15:00 +11°C° 0 mm 6 mps 715 mmHg 50%
    16:00 +10°C° 0 mm 6 mps 715 mmHg 55%
    17:00 +9°C° 0 mm 5 mps 715 mmHg 61%
    18:00 +8°C° 0 mm 5 mps 715 mmHg 66%
    19:00 +8°C° 0.4 mm 5 mps 716 mmHg 69%
    20:00 +8°C° 0.4 mm 5 mps 716 mmHg 73%
    21:00 +8°C° 0.4 mm 5 mps 716 mmHg 77%
    22:00 +8°C° 0.5 mm 5 mps 716 mmHg 80%
    23:00 +8°C° 0.5 mm 5 mps 716 mmHg 83%

    19 December, Wednesday

    Time Temperature Precipitation Wind Pressure Humidity
    00:00 +8°C° 0.5 mm 5 mps 716 mmHg 86%
    01:00 +8°C° 0.2 mm 5 mps 716 mmHg 87%
    02:00 +8°C° 0.2 mm 4 mps 716 mmHg 87%
    03:00 +7°C° 0.2 mm 4 mps 716 mmHg 88%
    04:00 +6°C° 0 mm 4 mps 716 mmHg 87%
    05:00 +5°C° 0 mm 4 mps 716 mmHg 86%
    06:00 +4°C° 0 mm 4 mps 716 mmHg 85%
    07:00 +4°C° 0 mm 4 mps 717 mmHg 82%
    08:00 +5°C° 0 mm 5 mps 717 mmHg 79%
    09:00 +4°C° 0 mm 6 mps 718 mmHg 76%
    10:00 +5°C° 0 mm 6 mps 718 mmHg 70%
    11:00 +6°C° 0 mm 7 mps 718 mmHg 64%
    12:00 +9°C° 0 mm 7 mps 718 mmHg 59%
    13:00 +9°C° 0 mm 7 mps 718 mmHg 58%
    14:00 +9°C° 0 mm 7 mps 718 mmHg 58%
    15:00 +9°C° 0 mm 7 mps 718 mmHg 57%
    16:00 +8°C° 0 mm 6 mps 718 mmHg 63%
    17:00 +7°C° 0 mm 5 mps 718 mmHg 68%
    18:00 +5°C° 0 mm 4 mps 719 mmHg 74%
    19:00 +5°C° 0 mm 4 mps 719 mmHg 76%
    20:00 +5°C° 0 mm 4 mps 719 mmHg 77%
    21:00 +5°C° 0 mm 4 mps 720 mmHg 79%
    22:00 +4°C° 0 mm 4 mps 720 mmHg 80%
    23:00 +4°C° 0 mm 4 mps 720 mmHg 82%

    20 December, Thursday

    Time Temperature Precipitation Wind Pressure Humidity
    00:00 +4°C° 0 mm 4 mps 720 mmHg 83%
    01:00 +4°C° 0 mm 4 mps 720 mmHg 84%
    02:00 +4°C° 0 mm 3 mps 721 mmHg 84%
    03:00 +4°C° 0 mm 3 mps 721 mmHg 85%
    04:00 +4°C° 0 mm 3 mps 721 mmHg 86%
    05:00 +3°C° 0 mm 3 mps 721 mmHg 86%
    06:00 +3°C° 0 mm 3 mps 721 mmHg 87%
    07:00 +4°C° 0 mm 3 mps 721 mmHg 85%
    08:00 +4°C° 0 mm 3 mps 722 mmHg 83%
    09:00 +5°C° 0 mm 3 mps 722 mmHg 81%
    10:00 +7°C° 0 mm 3 mps 722 mmHg 74%
    11:00 +9°C° 0 mm 3 mps 722 mmHg 68%
    12:00 +10°C° 0 mm 3 mps 722 mmHg 61%
    13:00 +10°C° 0 mm 3 mps 722 mmHg 60%
    14:00 +11°C° 0 mm 3 mps 722 mmHg 59%
    15:00 +11°C° 0 mm 3 mps 721 mmHg 58%
    16:00 +9°C° 0 mm 3 mps 722 mmHg 65%
    17:00 +8°C° 0 mm 3 mps 722 mmHg 72%
    18:00 +7°C° 0 mm 2 mps 722 mmHg 78%
    19:00 +6°C° 0 mm 2 mps 723 mmHg 79%
    20:00 +6°C° 0 mm 2 mps 723 mmHg 81%
    21:00 +6°C° 0 mm 2 mps 723 mmHg 82%
    22:00 +5°C° 0 mm 2 mps 723 mmHg 82%
    23:00 +5°C° 0 mm 2 mps 723 mmHg 83%
    Show more